Regional Weather Roundup
Issued by NWS Cleveland, OH

Home | Current Version | Previous Version | Graphics & Text | Print | Product List | Glossary On
Versions: 1 2 3 4 5 6 7 8 9 10 11 12 13 14 15 16 17 18 19 20 21 22 23 24 25 26 27 28 29 30 31 32 33 34 35 36 37 38 39 40 41 42 43 44 45 46 47 48 49 50
000
ASUS41 KCLE 261110
RWRCLE
OHIO REGIONAL WEATHER ROUNDUP
NATIONAL WEATHER SERVICE WILMINGTON, OH
700 AM EDT WED APR 26 2017

NOTE: "FAIR" INDICATES FEW OR NO CLOUDS BELOW 12,000 FEET WITH NO
SIGNIFICANT WEATHER AND/OR OBSTRUCTIONS TO VISIBILITY.

OHZ001>008-015>018-024>027-034-035-043-044-261200-
   NORTHWEST OHIO

CITY           SKY/WX    TMP DP  RH WIND       PRES   REMARKS
DEFIANCE       FAIR      59  54  83 S8        29.66S
FINDLAY        FAIR      59  52  77 SE12      29.69R
TOLEDO EXPRESS FAIR      58  55  90 S7        29.67F
TOLEDO EXEC    FAIR      58  55  90 S8        29.70R
LIMA           FAIR      59  55  87 SE10      29.68S
$$

OHZ009>014-019>023-028>033-038-089-261200-
   NORTHEAST OHIO

CITY           SKY/WX    TMP DP  RH WIND       PRES   REMARKS
CLE-HOPKINS    FAIR      56  51  84 S9        29.77R
CLE-LAKEFRONT  FAIR      56  52  86 SE12      29.73R
CUY CO. ARPT   CLEAR     55  54  94 S12       29.75
LORAIN-ELYRIA  FAIR      53  50  89 S8        29.74R
ASHTABULA      FAIR      53  52  96 SE3       29.77R
AKRON-CANTON   CLOUDY    54  51  90 S6        29.77R FOG
WOOSTER        FOG       52  51  97 SE7       29.77R VSB 3/4
MANSFIELD      FAIR      54  53  97 S9        29.74S
YOUNGSTOWN     FAIR      50  49  96 E6        29.77R
$$

OHZ042-051>053-060>062-070>072-077>081-261200-
  SOUTHWEST OHIO

CITY           SKY/WX    TMP DP  RH WIND       PRES   REMARKS
CINC-COVINGTON FAIR      56  53  90 S8        29.71R
CINC-LUNKEN    FAIR      53  53 100 CALM      29.72S
HAMILTON       FAIR      56  56 100 E3        29.71S
DAYTON         MOCLDY    57  55  93 SE8       29.71R
WRIGHT-PAT AFB FAIR      58  58 100 CALM      29.71R
DAYTON GENERAL FAIR      57  55  93 S7        29.70S
WILMINGTON     FAIR      56  55  97 SE5       29.73R
$$

OHZ036-037-039>041-045>050-054>059-063>069-073>076-082>088-261200-
  CENTRAL AND SOUTHEAST OHIO

CITY           SKY/WX    TMP DP  RH WIND       PRES   REMARKS
COLUMBUS       FAIR      57  54  89 SE6       29.73R
OSU AIRPORT    FAIR      56  54  93 SE7       29.73R
BOLTON FIELD   FAIR      51  51 100 CALM      29.74R FOG
RICKENBACK AFB FAIR      52  52 100 CALM      29.73S
NEWARK         FOG       51  49  92 CALM      29.74S VSB 1
MARION         FAIR      53  51  93 S8        29.73R
LANCASTER      FAIR      54  51  90 S6        29.75R
ZANESVILLE     FOG       50  49  96 CALM      29.76R VSB 1/2
NEW PHILLY     CLOUDY    52  52 100 E3        29.78R FOG
$$



USA.gov is the U.S. government's official web portal to all federal, state and local government web resources and services.